Regional Weather Roundup
Issued by NWS

Home | Current Version | Previous Version | Graphics & Text | Print | Product List | Glossary On
Versions: 1 2 3 4 5 6 7 8 9 10 11 12 13 14 15 16 17 18 19 20 21 22 23 24 25 26 27 28 29 30 31 32 33 34 35 36 37 38 39 40 41 42 43 44 45 46 47 48 49 50
000
ASUS43 KIND 270809
RWRIN

WEATHER ROUNDUP FOR INDIANA
NATIONAL WEATHER SERVICE INDIANAPOLIS IN
400 AM EDT WED AUG 27 2014

NOTE: "FAIR" INDICATES FEW OR NO CLOUDS BELOW 12,000 FEET WITH NO
SIGNIFICANT WEATHER AND/OR OBSTRUCTIONS TO VISIBILITY.

* - STATION DOES NOT REPORT WEATHER SUCH AS PRECIPITATION OR FOG.

+ - STATION NOT QUALITY CONTROLLED BY THE NATIONAL WEATHER SERVICE.
    USE DATA WITH CAUTION...ESPECIALLY DEWPOINT AND RELATIVE
    HUMIDITY OBSERVATIONS.

INZ001>003-010>013-019-020-270900-
NORTHWEST INDIANA

CITY           SKY/WX    TMP DP  RH WIND       PRES   REMARKS
GARY /AIRPORT/ MOCLDY    71  67  89 NE5       30.11S
KNOX *+        PTCLDY    66  64  93 NE3       30.10S
LA PORTE +     PTCLDY    65  65 100 NE5       30.11F
MICHIGAN CITY+ MOCLDY    64  64 100 CALM      30.11F FOG
MONTICELLO +   MOCLDY    68  68  99 CALM      30.09R
RENSSELAER +   CLOUDY    70  70 100 NE3       30.10S FOG
VALPARAISO     MOCLDY    67  65  93 E5        30.11S

$$

LMZ046-743>745-270900-
SOUTHERN LAKE MICHIGAN

STATION/POSITION TIME  TEMP WIND        PRES
                       AIR  DIR/SP/G
                 (UTC) (F)  (DEG/KT/KT) (MB)
MICHIGAN CITY    0800   68   70/  7/  9   N/A

$$

INZ004-005-014>016-021>024-270900-
NORTH CENTRAL INDIANA

CITY           SKY/WX    TMP DP  RH WIND       PRES   REMARKS
GOSHEN         PTCLDY    69  65  86 N6        30.10F
LOGANSPORT +   MOCLDY    68  64  88 CALM      30.10F
ROCHESTER +    CLOUDY    72  72 100 CALM      30.10F FOG
SOUTH BEND     PTCLDY    65  64  97 N6        30.11F FOG
WARSAW +       FOG       68  68 100 N3        30.10S VSB 1/2

$$

INZ006>009-017-018-025>027-270900-
NORTHEAST INDIANA

CITY           SKY/WX    TMP DP  RH WIND       PRES   REMARKS
ANGOLA *+      CLEAR     68  59  73 N3        30.10F
AUBURN +       PTCLDY    70  66  88 N3        30.10S FOG
FORT WAYNE     CLOUDY    70  68  93 W3        30.10S
HUNTINGTON +   MOCLDY    70  69  97 NW3       30.09F

$$

INZ028-029-035-036-043>045-051>053-270900-
WEST CENTRAL INDIANA

CITY           SKY/WX    TMP DP  RH WIND       PRES   REMARKS
GREENCASTLE +  CLOUDY    70  68  94 CALM      30.10F
LAFAYETTE      MOCLDY    67  67 100 CALM      30.08S FOG
TERRE HAUTE    CLOUDY    70  68  93 S3        30.09S

$$

INZ030>032-037>040-046>048-054>057-064-065-270900-
CENTRAL INDIANA

CITY           SKY/WX    TMP DP  RH WIND       PRES   REMARKS
CP ATTERBURY + MOCLDY    66  64  94 CALM      30.09F FOG
FRANKFORT +    MOCLDY   N/A N/A N/A CALM      30.10F
INDIANAPOLIS   CLOUDY    72  69  90 CALM      30.08S
-EAGLE CREEK   MOCLDY    71  68  90 CALM      30.09S
KOKOMO *+      MOCLDY    70  66  88 N7        30.10R
MARION +       MOCLDY    68  67  98 N5        30.11R
MT COMFORT *+  CLOUDY    68 N/A N/A CALM      30.10S
SHELBYVILLE    MOCLDY    70  67  90 CALM      30.09S FOG
ZIONSVILLE +   MOCLDY    68  65  90 CALM      30.10F FOG

$$

INZ033-034-041-042-049-050-058-059-270900-
EAST CENTRAL INDIANA

CITY           SKY/WX    TMP DP  RH WIND       PRES   REMARKS
MUNCIE         CLOUDY    71  68  90 CALM      30.10S

$$

INZ060-061-067>069-081>083-085>088-270900-
SOUTHWEST INDIANA

CITY           SKY/WX    TMP DP  RH WIND       PRES   REMARKS
EVANSVILLE     CLEAR     76  72  87 CALM      30.07F
WASHINGTON +   MOCLDY    70  70 100 SE3       30.06F FOG

$$

INZ062-063-066-070>080-084-089>092-270900-
SOUTH CENTRAL AND SOUTHEAST INDIANA

CITY           SKY/WX    TMP DP  RH WIND       PRES   REMARKS
BLOOMINGTON    MOCLDY    69  67  93 CALM      30.09F FOG

$$



USA.gov is the U.S. government's official web portal to all federal, state and local government web resources and services.